GFSFLT1_850_dewp_018.txt.gz
Dewpoint
5 4 5 6 7 9 9 9 6 7 6 6 5 5 4 3 3 3 2 1 1 1 1 2 2 1 1 -2 -3 -7 -8 -9
7 7 6 7 10 10 9 8 8 7 7 5 5 3 2 2 2 1 1 1 1 2 2 2 1 -2 -3 -3 -5 -6 -8 -10
5 6 8 9 8 8 7 3 5 6 4 4 3 2 2 2 2 2 2 2 2 1 -1 -2 -2 -3 -4 -6 -8 -8 -12 -7
4 4 5 4 3 3 3 2 2 2 2 2 1 0 -0 1 1 1 1 0 -0 -0 -1 -1 -2 -4 -8 -12 -12 -9 -3 -1
2 2 2 1 1 1 -0 0 0 1 1 1 1 -0 0 0 1 1 0 1 1 0 0 -1 -7 -15 -14 -6 -2 -1 -0 -2
1 1 1 2 2 1 1 1 1 1 2 2 1 1 2 2 1 1 1 1 1 -0 -6 -13 -13 -7 -5 -3 -2 -2 -2 -3
1 1 2 2 2 2 2 3 3 3 3 2 2 2 2 2 2 2 1 1 1 -6 -10 -8 -5 -6 -6 -3 -2 -2 -2 -2
1 2 1 2 3 3 3 3 3 3 3 3 3 3 2 2 2 2 2 -1 -5 -5 -5 -3 -7 -11 -6 -5 -5 -4 -4 -4
2 3 4 3 2 2 2 2 2 3 3 3 2 2 1 -0 -1 -2 -3 -4 -4 -3 -3 -10 -12 -9 -7 -7 -6 -7 -6 -6
2 2 2 2 1 1 1 2 2 2 2 2 1 -1 -2 -2 -2 -3 -4 -4 -3 -4 -12 -13 -11 -8 -7 -8 -10 -11 -11 -10
1 1 1 1 1 0 1 1 0 0 -0 -1 -2 -2 -2 -2 -3 -3 -3 -3 -3 -9 -11 -10 -9 -8 -9 -10 -11 -11 -11 -11
1 1 1 1 0 -0 -3 -4 -3 -3 -3 -4 -4 -3 -1 -2 -2 -3 -3 -4 -4 -4 -7 -7 -8 -8 -11 -11 -11 -11 -11 -11
1 1 -1 -3 -5 -5 -6 -4 -4 -5 -6 -5 -3 -3 -3 -2 -3 -2 -1 -2 -4 -5 -7 -7 -8 -11 -11 -12 -13 -13 -12 -11
1 -2 -7 -8 -4 -3 -4 -4 -6 -7 -8 -2 -7 -9 -6 -3 -3 -2 -4 -4 -4 -6 -7 -8 -11 -11 -12 -11 -11 -11 -10 -10
-3 -8 -6 -3 -3 -4 -5 -7 -8 -8 -9 -9 -10 -11 -8 -2 -2 -3 -4 -2 -3 -7 -7 -9 -11 -12 -11 -11 -10 -10 -10 -9
-7 -5 -3 -3 -6 -6 -7 -8 -8 -9 -10 -10 -12 -14 -9 -9 -9 -7 -7 -3 -5 -6 -11 -11 -12 -11 -10 -9 -9 -9 -8 -11
-6 -5 -6 -7 -7 -8 -9 -9 -10 -11 -12 -12 -12 -12 -11 -10 -10 -6 -3 -5 -7 -6 -8 -11 -11 -9 -9 -8 -8 -10 -12 -11
-6 -8 -9 -10 -10 -10 -11 -11 -12 -12 -11 -11 -11 -10 -9 -9 -7 -4 -3 -4 -7 -7 -8 -10 -9 -9 -8 -9 -11 -11 -10 -11
-8 -10 -11 -11 -12 -12 -12 -12 -11 -11 -10 -10 -9 -8 -8 -9 -6 -5 -4 -7 -6 -9 -9 -9 -10 -9 -11 -12 -11 -11 -11 -12

GFSFLT1_850_dewp_021.txt.gz
Dewpoint
5 5 5 6 5 9 9 9 9 8 8 7 6 5 4 4 4 4 4 3 2 1 1 2 0 -2 -3 -3 -3 -3 -4 -7
6 6 6 7 9 8 10 9 8 8 8 7 5 4 3 3 2 2 2 1 2 2 -0 -1 -1 -2 -1 -2 -3 -4 -7 -14
10 10 10 10 9 7 4 5 8 8 7 3 4 5 3 2 2 2 2 1 0 -1 1 1 -0 -0 -1 -2 -5 -14 -16 -10
7 6 6 5 4 4 3 2 3 3 3 3 1 1 1 -0 -0 1 1 1 0 0 0 -0 -1 -4 -10 -17 -20 -17 -12 -10
3 3 3 1 1 -0 -0 0 0 -0 -0 -0 -1 0 0 1 1 1 1 1 1 1 1 1 -7 -14 -16 -18 -16 -11 -7 -5
1 1 2 2 1 1 1 2 2 2 2 3 2 2 2 2 1 1 1 1 1 -1 -2 -6 -10 -11 -15 -15 -8 -4 -2 -2
2 2 2 3 2 2 2 3 3 3 3 3 2 2 2 2 2 2 -0 -2 -5 -5 -6 -6 -7 -13 -17 -13 -9 -7 -5 -5
3 3 3 3 3 3 3 3 2 2 3 3 2 2 1 -2 -5 -4 -3 -3 -4 -5 -5 -4 -10 -16 -15 -11 -9 -8 -8 -9
3 3 3 3 3 2 2 2 1 1 1 1 1 -2 -3 -4 -4 -3 -3 -3 -3 -3 -2 -7 -11 -10 -10 -10 -9 -9 -10 -11
3 3 2 2 1 0 -0 -0 -0 -1 -1 -2 -4 -4 -5 -4 -2 -2 -2 -3 -3 -2 -3 -7 -3 -6 -7 -8 -10 -11 -11 -11
2 1 1 0 0 -1 -4 -6 -6 -5 -5 -5 -5 -3 -1 -1 -2 -2 -3 -3 -3 -3 -4 -3 -5 -7 -8 -11 -11 -12 -14 -15
1 1 1 -1 -3 -6 -6 -5 -5 -5 -5 -6 -5 -2 -4 -8 -7 -3 -3 -3 -2 -3 -3 -5 -6 -8 -10 -11 -12 -13 -14 -12
1 0 -2 -6 -5 -4 -4 -5 -6 -6 -7 -7 -7 -6 -10 -14 -5 -1 -1 -4 -4 -4 -4 -4 -6 -9 -11 -11 -12 -13 -12 -10
-1 -5 -6 -5 -4 -4 -5 -6 -6 -7 -8 -9 -10 -11 -13 -16 -12 -12 -10 -8 -5 -4 -3 -5 -8 -7 -11 -11 -11 -11 -10 -9
-5 -7 -6 -4 -4 -6 -6 -7 -8 -8 -9 -10 -12 -13 -13 -11 -11 -10 -12 -7 -3 -3 -5 -7 -10 -10 -8 -10 -10 -9 -8 -8
-7 -7 -5 -6 -6 -6 -7 -8 -9 -11 -12 -13 -12 -11 -10 -10 -9 -10 -10 -3 -3 -3 -4 -10 -9 -8 -9 -9 -9 -9 -9 -11
-6 -6 -7 -8 -8 -9 -10 -11 -12 -13 -12 -11 -10 -10 -9 -8 -8 -10 -8 -6 -5 -4 -6 -8 -8 -9 -9 -9 -9 -11 -12 -12
-6 -7 -9 -10 -11 -11 -12 -12 -12 -12 -11 -10 -9 -8 -8 -8 -9 -9 -7 -5 -4 -8 -6 -8 -8 -9 -9 -10 -12 -13 -15 -15
-7 -9 -11 -12 -12 -12 -12 -12 -11 -11 -9 -8 -8 -8 -7 -8 -8 -7 -7 -5 -6 -7 -9 -8 -9 -9 -10 -12 -14 -16 -18 -16

GFSFLT1_850_dewp_024.txt.gz
Dewpoint
6 6 5 5 5 8 9 9 8 9 10 9 7 6 4 4 4 4 4 4 3 2 3 1 -0 0 0 -0 -0 -1 -2 -5
7 7 7 7 8 10 10 8 9 9 8 7 5 4 5 5 2 2 2 2 2 1 0 -0 1 1 1 0 -2 -7 -14 -21
10 10 10 10 10 10 7 8 9 7 6 6 5 4 1 -0 -1 -0 -0 0 1 1 1 1 1 1 0 -7 -17 -21 -21 -18
9 9 7 6 4 3 3 4 5 4 2 0 -1 -1 -1 -1 0 1 1 1 1 1 1 -0 -4 -5 -9 -13 -18 -21 -17 -16
6 3 1 1 0 -0 -0 0 0 0 1 1 1 2 2 2 1 2 2 1 1 -1 -6 -8 -7 -7 -8 -15 -19 -17 -13 -6
2 1 1 1 1 1 1 2 2 2 2 2 2 2 3 2 2 1 1 -4 -3 -4 -4 -5 -5 -4 -11 -15 -14 -10 -9 -7
2 2 2 2 2 2 2 3 3 3 3 3 3 2 2 2 -1 -5 -4 -4 -5 -4 -4 -5 -5 -4 -11 -14 -15 -14 -13 -11
2 2 3 3 3 3 3 3 2 2 2 2 2 1 -2 -4 -5 -4 -4 -3 -4 -4 -3 -3 -3 -7 -8 -4 -10 -10 -11 -11
3 3 4 3 3 3 2 1 -1 -1 -1 -1 -3 -5 -4 -2 -2 -2 -2 -2 -3 -2 -2 -2 -3 -4 -4 -5 -9 -12 -13 -13
4 4 3 2 2 1 -1 -3 -6 -6 -6 -5 -4 -3 -2 -1 -2 -3 -5 -3 -3 -2 -3 -3 -4 -3 -5 -7 -9 -11 -11 -13
3 2 2 1 0 -1 -4 -7 -6 -6 -8 -7 -6 -7 -5 -3 -8 -11 -12 -3 -3 -3 -5 -4 -4 -4 -5 -7 -9 -11 -12 -13
2 1 1 -0 -2 -4 -6 -7 -8 -8 -8 -7 -7 -5 -7 -11 -14 -15 -10 -7 -10 -10 -5 -3 -3 -5 -5 -6 -9 -11 -11 -11
1 1 -0 -3 -5 -6 -8 -8 -8 -7 -7 -8 -9 -11 -12 -14 -12 -11 -10 -10 -12 -7 -4 -5 -4 -4 -8 -8 -10 -10 -11 -10
1 -2 -5 -6 -7 -6 -6 -6 -7 -8 -8 -10 -12 -13 -13 -12 -11 -10 -10 -12 -13 -6 -5 -5 -4 -8 -7 -9 -10 -10 -10 -9
-2 -5 -6 -4 -4 -5 -6 -7 -8 -9 -11 -12 -13 -12 -11 -10 -9 -9 -10 -12 -10 -7 -5 -4 -4 -7 -9 -9 -10 -9 -9 -9
-4 -6 -4 -5 -6 -6 -7 -9 -10 -12 -12 -12 -11 -10 -9 -9 -9 -9 -10 -10 -7 -4 -5 -5 -6 -7 -7 -9 -8 -9 -10 -12
-5 -5 -6 -7 -8 -9 -10 -11 -12 -12 -12 -11 -10 -9 -9 -9 -9 -9 -9 -8 -6 -5 -4 -6 -7 -8 -8 -8 -10 -11 -13 -16
-5 -6 -7 -9 -10 -11 -12 -12 -11 -11 -11 -11 -9 -9 -8 -9 -9 -9 -7 -7 -6 -6 -6 -7 -8 -8 -9 -10 -10 -13 -17 -19
-6 -7 -8 -10 -11 -12 -12 -10 -11 -11 -10 -9 -9 -8 -9 -10 -9 -10 -6 -6 -5 -6 -8 -8 -8 -9 -9 -10 -13 -17 -19 -17

GFSFLT1_850_dewp_027.txt.gz
Dewpoint
5 5 4 5 5 6 9 10 8 8 6 7 9 7 7 5 5 5 4 3 3 2 2 1 -0 1 1 1 -2 -7 -12 -18
6 6 6 6 7 8 9 9 8 7 8 8 7 4 5 5 0 1 2 1 2 1 0 0 1 0 -3 -7 -9 -11 -16 -20
8 8 8 8 8 9 10 9 8 7 6 6 5 4 0 0 -0 0 1 1 1 1 1 0 -4 -8 -9 -8 -8 -10 -14 -19
10 10 9 9 8 7 7 7 7 4 4 4 1 0 1 1 1 1 1 1 1 1 -1 -4 -7 -6 -7 -7 -7 -10 -12 -10
8 8 4 3 3 1 1 2 2 2 3 2 1 2 2 2 2 2 2 1 -2 -6 -4 -6 -7 -6 -6 -6 -6 -10 -14 -6
5 2 1 -0 0 1 1 1 1 1 2 2 2 3 3 3 2 2 -2 -5 -7 -8 -7 -6 -5 -4 -4 -5 -6 -5 -13 -12
2 1 1 0 1 1 2 2 2 3 3 3 3 3 2 1 -2 -5 -6 -6 -4 -3 -4 -4 -3 -3 -3 -4 -4 -6 -9 -12
2 1 1 1 2 2 2 3 3 2 1 1 1 -1 -4 -7 -8 -7 -3 -2 -3 -2 -3 -3 -2 -3 -4 -4 -4 -7 -10 -11
2 2 2 2 2 3 3 3 0 -2 -5 -6 -9 -13 -9 -5 -3 -2 -3 -7 -9 -5 -2 -2 -2 -3 -4 -4 -6 -8 -10 -11
3 3 3 3 3 3 1 -2 -5 -8 -10 -12 -9 -5 -4 -3 -4 -9 -12 -14 -11 -4 -4 -4 -7 -4 -4 -3 -6 -7 -9 -11
4 4 4 3 2 -0 -3 -6 -8 -9 -9 -8 -7 -6 -5 -8 -11 -13 -15 -14 -13 -12 -12 -9 -5 -3 -4 -4 -4 -6 -9 -11
4 3 2 1 -1 -4 -5 -6 -8 -9 -9 -7 -7 -8 -10 -12 -14 -15 -13 -12 -12 -13 -12 -8 -5 -4 -4 -4 -6 -9 -9 -10
3 2 1 -1 -4 -5 -5 -7 -9 -9 -7 -8 -9 -11 -13 -15 -15 -11 -9 -10 -12 -13 -10 -7 -5 -5 -5 -5 -8 -8 -10 -10
2 1 -1 -4 -5 -6 -7 -7 -7 -7 -8 -10 -12 -12 -14 -11 -9 -9 -10 -12 -12 -11 -8 -5 -4 -4 -6 -7 -8 -8 -9 -9
1 -1 -4 -5 -5 -6 -5 -7 -7 -9 -11 -12 -12 -12 -10 -9 -9 -10 -13 -13 -11 -8 -6 -4 -6 -4 -6 -7 -7 -9 -9 -9
-0 -2 -5 -5 -6 -3 -7 -7 -9 -12 -11 -12 -12 -10 -9 -9 -9 -13 -13 -11 -9 -9 -5 -5 -6 -6 -7 -8 -8 -9 -10 -11
-1 -4 -5 -6 -4 -7 -8 -10 -12 -11 -11 -12 -11 -10 -8 -9 -13 -13 -11 -10 -8 -7 -6 -6 -6 -6 -8 -8 -9 -10 -12 -15
-1 -4 -5 -5 -7 -9 -10 -12 -11 -11 -12 -11 -10 -9 -10 -12 -13 -10 -10 -9 -6 -6 -5 -6 -8 -8 -8 -9 -9 -12 -15 -19
-2 -5 -6 -7 -9 -11 -12 -11 -10 -13 -12 -10 -10 -11 -12 -11 -11 -9 -9 -8 -6 -6 -7 -7 -8 -8 -9 -9 -12 -14 -17 -19

GFSFLT1_850_dewp_030.txt.gz
Dewpoint
7 7 7 9 10 9 8 8 8 8 6 6 7 8 7 6 5 5 5 5 3 2 2 1 1 1 -0 -3 -4 -3 -4 -4
5 5 6 9 10 10 10 8 9 8 7 8 8 6 4 5 5 2 1 2 2 2 1 1 1 -0 -3 -5 -4 -4 -5 -3
9 8 10 10 10 10 10 10 9 8 7 6 6 5 5 4 2 1 1 2 1 1 1 -0 -1 -2 -1 -4 -4 -4 -6 -5
10 11 11 11 11 11 11 10 9 6 5 4 5 5 2 2 1 2 1 1 1 -2 -4 -4 -4 -7 -4 -2 -3 -3 -4 -5
10 11 11 10 10 10 10 9 6 5 4 5 5 4 4 4 3 3 2 0 -3 -3 -8 -11 -9 -5 -2 -3 -4 -3 -4 -5
9 8 7 6 3 5 8 7 5 1 2 3 4 4 4 3 2 1 1 1 -2 -3 -4 -6 -5 -2 -2 -1 -2 -2 -4 -5
5 4 4 4 5 5 3 3 2 2 2 3 4 3 3 1 0 -2 -4 -3 -2 -1 0 -1 -0 -1 -1 -2 -2 -3 -3 -4
3 3 2 3 4 4 4 4 4 4 3 3 1 0 -2 -3 -3 -3 -2 -3 -3 -3 -2 -1 -1 -2 -1 -2 -3 -3 -4 -5
3 3 3 4 4 5 4 4 3 3 1 -3 -11 -14 -3 -3 -2 -2 -4 -5 -4 -3 -2 -3 -3 -3 -3 -3 -3 -3 -3 -4
3 3 4 4 4 4 4 3 1 -3 -10 -6 -12 -6 -7 -4 -6 -7 -5 -4 -5 -6 -4 -4 -4 -4 -4 -3 -4 -3 -4 -4
4 4 5 4 4 3 2 -1 -6 -9 -9 -10 -3 -7 -7 -9 -9 -6 -6 -7 -7 -7 -7 -7 -5 -5 -4 -3 -4 -4 -4 -4
4 4 4 4 3 1 -2 -5 -8 -3 -3 -7 -8 -8 -10 -8 -7 -7 -7 -7 -7 -7 -6 -6 -5 -5 -4 -4 -3 -4 -5 -5
4 4 3 2 0 -1 -3 -7 -4 -6 -7 -8 -7 -11 -8 -7 -7 -7 -6 -6 -6 -6 -4 -4 -5 -4 -3 -3 -4 -5 -5 -6
4 3 2 1 -1 -2 -4 -4 -3 -5 -7 -8 -8 -7 -7 -7 -7 -6 -5 -6 -6 -4 -4 -4 -3 -3 -4 -5 -5 -5 -6 -7
3 2 1 -0 -2 -2 -4 -1 -4 -7 -8 -9 -9 -7 -7 -6 -5 -5 -6 -6 -5 -4 -5 -5 -5 -5 -5 -6 -6 -7 -7 -8
2 2 1 -1 -2 -2 -2 -5 -6 -8 -10 -9 -8 -7 -5 -5 -4 -5 -6 -5 -4 -5 -5 -4 -5 -5 -6 -6 -6 -7 -8 -9
2 1 -0 -2 -2 -2 -2 -5 -7 -11 -11 -8 -9 -7 -6 -5 -5 -7 -6 -5 -5 -5 -4 -5 -5 -6 -8 -8 -8 -9 -9 -11
1 0 -1 -2 -3 -4 -6 -8 -11 -11 -9 -9 -8 -7 -6 -6 -7 -7 -6 -6 -5 -5 -4 -5 -5 -6 -8 -8 -9 -10 -10 -11
1 -0 -1 -2 -4 -8 -7 -10 -11 -10 -11 -9 -7 -7 -7 -7 -6 -6 -6 -6 -6 -5 -5 -6 -6 -7 -8 -9 -10 -12 -10 -10

GFSFLT1_850_dewp_033.txt.gz
Dewpoint
6 5 3 4 8 11 11 11 7 6 6 6 7 4 6 7 6 5 5 5 5 4 4 3 2 2 2 2 1 -1 -3 -6
9 7 6 7 10 11 11 12 10 8 8 8 7 8 7 5 5 5 4 4 3 3 3 3 2 1 1 1 -1 -3 -4 -4
9 9 9 9 10 11 11 11 9 10 10 9 7 6 6 5 5 4 4 2 3 3 2 2 1 0 -2 -2 -1 -2 -4 -4
9 9 10 11 11 11 11 11 10 10 8 7 6 6 6 5 4 4 3 3 3 2 1 1 -0 -2 -4 -2 -2 -2 -3 -4
9 10 11 11 11 11 11 10 9 8 7 5 5 4 3 4 4 4 4 3 2 1 0 -0 -1 -1 -1 -2 -3 -2 -3 -4
9 10 10 10 10 9 9 8 7 6 6 5 6 4 5 5 4 4 3 2 2 -0 -1 -0 -0 -1 -2 -2 -2 -2 -3 -4
9 8 8 7 9 9 8 6 5 6 5 5 5 5 4 3 1 0 -3 -4 -3 -3 -2 -2 -1 -2 -2 -2 -2 -3 -3 -3
5 4 3 5 7 8 7 5 5 5 5 5 5 3 1 -2 -2 -3 -2 -3 -4 -5 -3 -2 -3 -3 -3 -3 -2 -5 -3 -3
3 2 2 4 5 5 4 4 5 5 4 3 1 -1 -2 -2 -2 -2 -5 -5 -4 -4 -4 -4 -4 -4 -4 -4 -4 -3 -3 -2
2 2 2 4 5 5 5 4 4 4 2 -1 -0 -2 -3 -3 -4 -5 -5 -5 -6 -8 -6 -6 -7 -7 -6 -5 -5 -3 -4 -3
2 2 3 4 5 5 5 4 2 1 -1 -1 -0 0 -3 -5 -5 -5 -5 -6 -6 -6 -6 -7 -6 -5 -5 -5 -4 -4 -3 -3
3 3 4 5 5 5 4 2 -0 -1 -1 -0 -1 -3 -5 -5 -6 -6 -6 -6 -6 -7 -7 -6 -5 -6 -6 -4 -4 -3 -3 -4
3 4 4 5 4 4 2 -0 -2 -1 -1 -2 -2 -5 -6 -6 -6 -7 -6 -5 -6 -7 -6 -5 -5 -5 -4 -4 -4 -4 -4 -5
3 4 4 4 4 2 1 -2 -2 -2 -1 -3 -5 -6 -6 -6 -7 -6 -5 -5 -6 -6 -5 -5 -5 -5 -5 -4 -5 -5 -5 -5
3 4 4 3 2 1 -0 -2 -2 -1 -4 -5 -8 -7 -6 -7 -6 -5 -5 -6 -6 -6 -5 -5 -5 -6 -6 -5 -5 -6 -6 -6
3 4 4 3 1 0 -1 -2 -1 -4 -2 -6 -8 -7 -6 -6 -5 -5 -5 -6 -5 -5 -6 -5 -5 -5 -6 -6 -6 -7 -9 -10
3 3 3 2 1 -0 -2 -2 -2 -2 -4 -7 -7 -7 -8 -6 -5 -5 -6 -6 -6 -6 -6 -5 -6 -6 -6 -9 -9 -9 -9 -10
2 2 2 2 0 -1 -2 -2 -2 -5 -8 -7 -8 -8 -7 -6 -7 -7 -7 -6 -6 -6 -5 -5 -5 -5 -6 -8 -9 -9 -9 -10
1 2 2 1 -0 -2 -3 -4 -6 -6 -7 -8 -9 -7 -7 -7 -7 -7 -7 -6 -6 -6 -5 -5 -4 -5 -7 -9 -8 -10 -9 -9